TimeCDT,TemperatureF,Dew PointF,Humidity,Sea Level PressureIn,VisibilityMPH,Wind Direction,Wind SpeedMPH,Gust SpeedMPH,PrecipitationIn,Events,Conditions,WindDirDegrees,DateUTC
12:52 AM,78.1,55.9,46,29.66,10.0,SSW,18.4,28.8,N/A,,Clear,210,2014-04-13 05:52:00
1:52 AM,77.0,55.0,47,29.66,10.0,SSW,16.1,28.8,N/A,,Scattered Clouds,200,2014-04-13 06:52:00
2:52 AM,75.9,55.0,48,29.63,10.0,South,18.4,24.2,N/A,,Clear,180,2014-04-13 07:52:00
3:52 AM,73.9,57.0,55,29.61,10.0,South,18.4,-,N/A,,Clear,180,2014-04-13 08:52:00
4:52 AM,73.0,61.0,66,29.58,10.0,South,19.6,28.8,N/A,,Clear,180,2014-04-13 09:52:00
5:52 AM,72.0,61.0,68,29.57,10.0,South,16.1,23.0,N/A,,Clear,190,2014-04-13 10:52:00
6:52 AM,71.1,61.0,70,29.60,10.0,SSW,26.5,35.7,N/A,,Clear,200,2014-04-13 11:52:00
7:52 AM,70.0,62.1,76,29.65,10.0,SSW,19.6,36.8,N/A,,Partly Cloudy,200,2014-04-13 12:52:00
8:52 AM,69.1,60.1,73,29.65,10.0,South,21.9,32.2,0.00,Rain,Light Rain,190,2014-04-13 13:52:00
9:52 AM,71.1,57.0,61,29.65,10.0,South,18.4,26.5,0.00,,Overcast,190,2014-04-13 14:52:00
10:52 AM,73.0,61.0,66,29.63,10.0,South,28.8,36.8,N/A,,Partly Cloudy,190,2014-04-13 15:52:00
11:52 AM,78.1,57.9,50,29.62,10.0,SSW,21.9,31.1,N/A,,Scattered Clouds,200,2014-04-13 16:52:00
12:52 PM,80.1,60.1,50,29.60,10.0,South,19.6,29.9,N/A,,Clear,190,2014-04-13 17:52:00
1:52 PM,82.0,55.9,41,29.57,10.0,South,20.7,29.9,N/A,,Clear,190,2014-04-13 18:52:00
2:36 PM,73.9,60.1,62,29.63,10.0,South,11.5,27.6,0.04,Hail,Hail,190,2014-04-13 19:36:00
2:52 PM,77.0,60.1,56,29.55,10.0,South,24.2,32.2,0.04,,Scattered Clouds,180,2014-04-13 19:52:00
3:52 PM,80.1,57.9,47,29.52,10.0,SSE,12.7,24.2,N/A,,Clear,160,2014-04-13 20:52:00
4:52 PM,87.1,48.9,27,29.48,10.0,SSW,21.9,28.8,N/A,,Clear,210,2014-04-13 21:52:00
5:23 PM,90.0,17.1,7,29.56,10.0,West,26.5,40.3,N/A,,Clear,270,2014-04-13 22:23:00
5:52 PM,89.1,19.0,8,29.48,10.0,West,26.5,38.0,N/A,,Clear,260,2014-04-13 22:52:00
7:52 PM,82.0,21.0,10,29.52,10.0,WSW,10.4,-,N/A,,Clear,250,2014-04-14 00:52:00
8:52 PM,72.0,54.0,53,29.57,10.0,SSE,16.1,-,N/A,,Clear,150,2014-04-14 01:52:00
9:52 PM,71.1,55.0,57,29.60,10.0,Variable,5.8,19.6,N/A,,Clear,0,2014-04-14 02:52:00
10:52 PM,64.9,43.0,45,29.67,10.0,NNE,11.5,21.9,N/A,,Clear,30,2014-04-14 03:52:00
11:52 PM,59.0,41.0,51,29.72,10.0,North,15.0,26.5,N/A,,Clear,10,2014-04-14 04:52:00